Visibility
15.0 15.0 15.0 15.0 15.0 15.0 15.0 15.0 15.0 15.0 15.0 15.0 15.0 8.9 15.0 15.0 8.1 10.3 13.4 15.0 8.6 12.6 15.0 14.3 15.0 15.0 15.0 15.0 15.0 15.0 15.0 15.0 15.0 15.0 15.0 15.0 15.0 15.0 15.0 15.0 15.0 15.0 10.9
15.0 15.0 15.0 15.0 15.0 15.0 15.0 15.0 15.0 15.0 15.0 15.0 15.0 15.0 15.0 15.0 15.0 3.8 15.0 15.0 15.0 4.6 15.0 15.0 15.0 15.0 5.0 15.0 15.0 15.0 15.0 15.0 15.0 15.0 15.0 15.0 15.0 15.0 15.0 15.0 15.0 15.0 15.0
15.0 15.0 15.0 15.0 15.0 15.0 15.0 15.0 15.0 15.0 15.0 15.0 15.0 9.3 15.0 15.0 15.0 15.0 14.6 15.0 15.0 15.0 15.0 15.0 15.0 15.0 4.8 14.4 9.0 15.0 15.0 11.5 15.0 6.0 15.0 15.0 15.0 15.0 15.0 15.0 7.9 15.0 15.0
15.0 15.0 15.0 15.0 15.0 15.0 15.0 15.0 15.0 8.7 10.0 15.0 15.0 9.6 10.0 14.6 7.2 15.0 14.2 15.0 15.0 15.0 15.0 15.0 15.0 15.0 4.6 15.0 12.2 13.9 9.7 12.2 15.0 15.0 15.0 15.0 15.0 15.0 15.0 15.0 15.0 5.2 8.1
15.0 15.0 15.0 15.0 15.0 15.0 15.0 15.0 12.6 3.3 8.4 5.3 15.0 15.0 15.0 3.3 15.0 9.6 7.6 5.7 9.9 15.0 4.7 15.0 15.0 15.0 15.0 15.0 5.6 7.7 15.0 9.2 15.0 15.0 15.0 15.0 15.0 15.0 15.0 15.0 12.5 7.7 9.0
15.0 15.0 15.0 15.0 15.0 15.0 15.0 15.0 5.6 15.0 5.9 15.0 15.0 15.0 15.0 15.0 15.0 15.0 15.0 15.0 4.0 7.1 15.0 3.8 15.0 2.6 2.2 14.8 15.0 15.0 15.0 11.5 11.0 14.8 15.0 15.0 12.4 15.0 15.0 15.0 15.0 4.5 7.3
15.0 15.0 15.0 15.0 15.0 15.0 15.0 15.0 15.0 10.3 7.7 15.0 8.6 15.0 13.2 15.0 15.0 11.2 13.7 15.0 15.0 3.7 14.8 4.2 7.1 15.0 15.0 14.2 10.7 15.0 15.0 15.0 15.0 15.0 15.0 15.0 15.0 9.1 13.1 12.0 12.3 15.0 13.0
15.0 15.0 15.0 15.0 15.0 15.0 15.0 15.0 15.0 15.0 15.0 15.0 10.2 11.9 8.6 15.0 15.0 0.8 14.3 15.0 15.0 15.0 10.2 10.9 11.6 5.8 10.1 4.9 6.1 4.1 3.8 12.0 12.4 15.0 15.0 15.0 15.0 15.0 15.0 6.9 13.7 15.0 9.9
15.0 15.0 15.0 15.0 15.0 15.0 15.0 15.0 15.0 15.0 15.0 3.1 15.0 4.2 12.9 12.9 7.7 7.7 0.5 15.0 15.0 15.0 15.0 13.3 3.2 15.0 15.0 2.2 8.7 13.1 5.0 12.1 0.7 3.1 11.5 15.0 9.1 12.4 2.4 15.0 15.0 6.2 15.0
15.0 15.0 15.0 15.0 15.0 15.0 15.0 15.0 15.0 15.0 15.0 15.0 15.0 15.0 4.1 4.1 0.1 0.5 0.1 15.0 15.0 14.8 8.3 14.1 3.6 0.3 2.3 0.0 3.8 4.5 5.0 11.5 5.4 5.4 2.2 0.5 0.1 3.6 0.2 3.8 7.7 6.9 4.7
15.0 15.0 15.0 15.0 15.0 15.0 15.0 15.0 15.0 15.0 15.0 15.0 15.0 15.0 15.0 9.7 0.2 7.0 0.2 15.0 15.0 11.0 15.0 12.5 1.1 0.1 0.0 0.0 0.0 10.0 8.7 0.1 6.1 5.4 5.3 4.1 4.0 14.8 15.0 15.0 15.0 1.1 7.9
15.0 15.0 15.0 15.0 15.0 15.0 15.0 15.0 15.0 15.0 15.0 15.0 15.0 15.0 15.0 15.0 0.1 0.1 0.1 0.1 3.4 10.3 15.0 12.9 0.4 0.0 0.0 0.0 0.1 0.1 0.0 0.1 9.6 13.0 5.1 4.7 4.3 5.5 2.5 4.9 6.4 1.8 15.0
15.0 15.0 15.0 15.0 15.0 15.0 15.0 15.0 15.0 15.0 15.0 15.0 15.0 15.0 15.0 15.0 14.5 0.1 0.1 0.0 0.0 0.1 7.1 0.1 0.0 0.0 0.1 4.1 2.4 10.7 0.1 0.0 0.0 0.1 3.7 0.0 0.0 0.1 0.1 0.1 0.4 13.5 3.0
15.0 15.0 15.0 15.0 15.0 15.0 15.0 15.0 15.0 15.0 15.0 15.0 15.0 15.0 15.0 15.0 15.0 15.0 15.0 13.4 0.2 6.2 2.5 11.1 0.1 0.3 0.1 3.2 15.0 15.0 0.2 0.2 0.1 0.1 0.1 0.1 0.1 0.1 0.1 8.9 0.2 1.2 1.2
15.0 15.0 15.0 15.0 15.0 15.0 15.0 15.0 15.0 12.8 8.6 15.0 15.0 15.0 15.0 15.0 9.0 0.1 0.1 9.9 15.0 0.5 6.2 15.0 15.0 15.0 15.0 15.0 15.0 15.0 15.0 7.2 0.2 5.9 15.0 4.5 0.5 0.5 0.1 0.7 1.6 1.9 6.4
15.0 15.0 15.0 15.0 15.0 15.0 15.0 15.0 0.0 0.1 0.1 0.1 0.1 2.5 5.4 0.1 0.0 0.0 0.0 0.0 0.0 0.0 10.5 15.0 15.0 15.0 15.0 15.0 15.0 15.0 15.0 15.0 15.0 15.0 6.1 15.0 0.4 4.0 4.8 4.6 6.0 8.8 15.0
15.0 15.0 15.0 15.0 15.0 15.0 15.0 15.0 15.0 0.2 0.1 0.0 0.1 0.1 0.0 0.1 0.0 0.0 0.0 0.0 0.0 0.0 15.0 15.0 15.0 15.0 15.0 15.0 15.0 15.0 15.0 15.0 15.0 15.0 15.0 15.0 6.2 6.3 6.6 14.9 15.0 15.0 15.0
15.0 11.5 15.0 15.0 15.0 15.0 15.0 15.0 15.0 15.0 15.0 15.0 0.1 0.2 0.1 0.0 0.0 0.0 0.0 0.5 10.4 7.4 15.0 15.0 15.0 15.0 15.0 15.0 15.0 15.0 15.0 15.0 15.0 15.0 15.0 15.0 15.0 9.6 13.3 14.5 13.9 15.0 15.0
15.0 15.0 15.0 15.0 15.0 15.0 15.0 15.0 15.0 15.0 15.0 15.0 15.0 0.2 0.1 0.0 0.0 0.0 0.0 15.0 15.0 15.0 15.0 15.0 15.0 15.0 15.0 15.0 15.0 15.0 15.0 15.0 15.0 15.0 15.0 15.0 15.0 15.0 15.0 15.0 15.0 15.0 15.0
15.0 15.0 15.0 15.0 15.0 15.0 15.0 15.0 15.0 15.0 15.0 15.0 15.0 15.0 15.0 15.0 15.0 15.0 15.0 15.0 15.0 15.0 15.0 15.0 15.0 15.0 15.0 15.0 15.0 15.0 15.0 12.1 15.0 15.0 15.0 15.0 15.0 15.0 15.0 15.0 15.0 15.0 15.0
15.0 15.0 15.0 15.0 15.0 15.0 15.0 15.0 15.0 15.0 15.0 15.0 15.0 14.7 15.0 15.0 15.0 15.0 15.0 15.0 15.0 15.0 15.0 15.0 15.0 15.0 15.0 15.0 15.0 15.0 15.0 15.0 15.0 15.0 15.0 15.0 15.0 15.0 15.0 15.0 15.0 15.0 15.0
15.0 15.0 15.0 15.0 15.0 15.0 15.0 15.0 15.0 15.0 15.0 15.0 15.0 9.5 0.1 15.0 15.0 15.0 15.0 15.0 15.0 15.0 15.0 15.0 15.0 15.0 15.0 15.0 15.0 15.0 15.0 15.0 15.0 15.0 15.0 15.0 15.0 15.0 15.0 15.0 15.0 15.0 15.0
15.0 15.0 15.0 15.0 15.0 15.0 15.0 15.0 15.0 15.0 15.0 15.0 15.0 15.0 15.0 15.0 15.0 15.0 15.0 15.0 15.0 15.0 15.0 15.0 15.0 15.0 15.0 15.0 15.0 15.0 15.0 15.0 15.0 15.0 15.0 15.0 15.0 15.0 15.0 15.0 15.0 15.0 15.0
15.0 15.0 15.0 15.0 15.0 15.0 15.0 15.0 15.0 15.0 11.7 15.0 15.0 15.0 15.0 15.0 15.0 15.0 15.0 15.0 15.0 15.0 15.0 15.0 15.0 15.0 15.0 15.0 15.0 15.0 15.0 15.0 15.0 15.0 15.0 15.0 15.0 15.0 15.0 15.0 15.0 15.0 15.0
15.0 15.0 15.0 15.0 15.0 15.0 15.0 15.0 15.0 15.0 15.0 15.0 15.0 15.0 15.0 15.0 15.0 15.0 15.0 15.0 15.0 15.0 15.0 15.0 15.0 15.0 15.0 15.0 15.0 15.0 15.0 15.0 15.0 0.3 15.0 15.0 15.0 15.0 15.0 15.0 15.0 15.0 15.0
15.0 15.0 15.0 15.0 15.0 15.0 15.0 15.0 15.0 15.0 15.0 15.0 15.0 15.0 15.0 15.0 15.0 15.0 15.0 15.0 15.0 15.0 15.0 15.0 15.0 15.0 15.0 15.0 15.0 15.0 15.0 15.0 15.0 15.0 15.0 15.0 15.0 15.0 15.0 15.0 15.0 15.0 15.0